User: anonymous   Login
Location: Casilda
(33.0440°S, 61.1680°W)
Time: 17:12:25
(UTC-03:00)
Language:

ISS - Orbit

View from above orbital plane
View from above orbital plane
View from above satellite
View from above satellite

Ground track
Ground track

The orbit data is extracted from the following two-line orbital elements,

1 25544U 98067A   21216.68737318  .00001413  00000-0  33915-4 0  9999
2 25544  51.6440 102.8817 0001219 246.7721 206.1474 15.48872926296116
Epoch (UTC): 04 August 2021 16:29:49
Eccentricity: 0.0001219
inclination: 51.6440°
perigee height: 419 km
apogee height: 421 km
right ascension of ascending node: 102.8817°
argument of perigee: 246.7721°
revolutions per day: 15.48872926
mean anomaly at epoch: 206.1474°
orbit number at epoch: 29611

The dashed part of the orbit path shows where the satellite is in the earth's shadow,  

DLR